Weather History for Pope Field Airport, NC

Change the Weather History Date:

Thursday, March 1, 2012

  Actual Average Record
Temperature  
Mean Temperature 71 °F -  
Max Temperature 82 °F 60 °F 89 °F (1997)
Min Temperature 60 °F 37 °F 20 °F (1980)
Cooling Degree Days 6    
Growing Degree Days 21 (Base 50)    
Moisture  
Dew Point 57 °F    
Average Humidity 71    
Maximum Humidity 88    
Minimum Humidity 31    
Precipitation  
Precipitation 0.00 in - - ()
Sea Level Pressure  
Sea Level Pressure 29.83 in    
Wind  
Wind Speed 15 mph (WSW)    
Max Wind Speed 24 mph    
Max Gust Speed 31 mph    
Visibility 9 miles    
Events      
Averages and records for this station are not official NWS values.
T = Trace of Precipitation, MM = Missing Value Source: NWS Daily Summary

Daily Weather History Graph

Daily Weather History Graph

Search for Another Location

Airport:

Trip Planner

Search our weather history database for the weather conditions in past years. The results will help you decide how hot, cold, wet, or windy it might be!

Date:

Astronomy

Mar. 01, 2012 Rise Set
Actual Time 6:44 AM EST 6:12 PM EST
Civil Twilight 6:19 AM EST 6:37 PM EST
Nautical Twilight 5:50 AM EST 7:06 PM EST
Astronomical Twilight 5:20 AM EST 7:36 PM EST
Moon 11:40 AM EST (3/1) 1:32 AM EST (3/1)
Length of Visible Light 12h 17m
Length of Day
11h 27m
First Quarter, 56% of the Moon is Illuminated
Mar 1
First Quarter
Mar 8
Full
Mar 14
Last Quarter
Mar 22
New
Mar 30
First Quarter

Hourly Weather History & Observations

Time (EST) Temp. Heat Index Dew Point Humidity Pressure Visibility Wind Dir Wind Speed Gust Speed Precip Events Conditions
12:55 AM 67.8 °F - 61.5 °F 80% 29.83 in 10.0 mi SW 16.1 mph 23.0 mph N/A   Partly Cloudy
1:55 AM 67.6 °F - 61.7 °F 81% 29.83 in 10.0 mi SW 20.7 mph - N/A   Clear
2:55 AM 67.8 °F - 60.6 °F 78% 29.81 in 10.0 mi WSW 24.2 mph 31.1 mph N/A   Scattered Clouds
3:55 AM 66.6 °F - 60.4 °F 81% 29.81 in 10.0 mi WSW 16.1 mph - N/A   Clear
4:37 AM 66.2 °F - 60.8 °F 83% 29.82 in 10.0 mi WSW 18.4 mph - N/A   Overcast
4:41 AM 66.2 °F - 60.8 °F 83% 29.81 in 10.0 mi WSW 17.3 mph - N/A   Mostly Cloudy
4:55 AM 66.4 °F - 61.2 °F 83% 29.81 in 10.0 mi SW 16.1 mph - N/A   Partly Cloudy
5:24 AM 66.2 °F - 60.8 °F 83% 29.81 in 10.0 mi SW 15.0 mph 21.9 mph N/A   Mostly Cloudy
5:30 AM 66.2 °F - 60.8 °F 83% 29.81 in 10.0 mi SW 16.1 mph 21.9 mph N/A   Scattered Clouds
5:55 AM 65.5 °F - 60.8 °F 85% 29.82 in 10.0 mi SW 15.0 mph 24.2 mph N/A   Clear
6:55 AM 64.8 °F - 60.8 °F 87% 29.83 in 10.0 mi SW 12.7 mph - N/A   Clear
7:55 AM 65.3 °F - 61.3 °F 87% 29.84 in 10.0 mi WSW 12.7 mph - N/A   Clear
8:42 AM 66.2 °F - 62.6 °F 88% 29.86 in 10.0 mi WSW 16.1 mph - N/A   Mostly Cloudy
8:55 AM 67.6 °F - 62.1 °F 82% 29.86 in 10.0 mi WSW 16.1 mph 23.0 mph N/A   Mostly Cloudy
9:55 AM 69.8 °F - 62.2 °F 77% 29.86 in 10.0 mi WSW 19.6 mph 25.3 mph N/A   Overcast
10:55 AM 73.0 °F - 60.8 °F 65% 29.86 in 10.0 mi West 15.0 mph 27.6 mph N/A   Mostly Cloudy
11:05 AM 73.4 °F - 60.8 °F 65% 29.86 in 10.0 mi West 18.4 mph 25.3 mph N/A   Mostly Cloudy
11:55 AM 76.6 °F - 58.8 °F 54% 29.83 in 10.0 mi WSW 23.0 mph 29.9 mph N/A   Partly Cloudy
12:55 PM 79.2 °F - 57.2 °F 47% 29.79 in 10.0 mi West 19.6 mph 28.8 mph N/A   Partly Cloudy
1:55 PM 80.2 °F 80.1 °F 53.6 °F 40% 29.76 in 10.0 mi WSW 18.4 mph 23.0 mph N/A   Clear
2:55 PM 82.0 °F - 50.9 °F 34% 29.74 in 10.0 mi WSW 17.3 mph 21.9 mph N/A   Clear
3:55 PM 81.7 °F - 48.0 °F 31% 29.74 in 10.0 mi West 21.9 mph - N/A   Partly Cloudy
4:55 PM 80.4 °F - 46.8 °F 31% 29.76 in 10.0 mi West 16.1 mph - N/A   Clear
5:55 PM 76.8 °F - 48.2 °F 36% 29.78 in 10.0 mi WSW 11.5 mph - N/A   Clear
6:55 PM 68.5 °F - 48.0 °F 48% 29.80 in 10.0 mi SW 5.8 mph - N/A   Clear
7:55 PM 65.1 °F - 50.4 °F 59% 29.82 in 10.0 mi WSW 8.1 mph - N/A   Clear
8:55 PM 63.1 °F - 50.9 °F 64% 29.84 in 10.0 mi WSW 5.8 mph - N/A   Clear
9:55 PM 65.5 °F - 55.6 °F 70% 29.86 in 10.0 mi SW 10.4 mph - N/A   Clear
10:55 PM 63.9 °F - 58.5 °F 83% 29.88 in 10.0 mi West 8.1 mph - N/A   Clear
11:07 PM 62.6 °F - 57.2 °F 82% 29.88 in 6.0 mi NW 4.6 mph - N/A   Haze
11:12 PM 62.6 °F - 57.2 °F 82% 29.88 in 6.0 mi Calm Calm - N/A   Haze
11:30 PM 60.8 °F - 55.4 °F 82% 29.89 in 4.0 mi NW 3.5 mph - N/A   Haze
11:31 PM 60.8 °F - 55.4 °F 82% 29.89 in 4.0 mi Calm Calm - N/A   Haze
11:36 PM 60.8 °F - 55.4 °F 82% 29.89 in 3.0 mi Calm Calm - N/A   Haze
11:49 PM 60.8 °F - 55.4 °F 82% 29.89 in 3.0 mi Calm Calm - N/A   Light Drizzle
11:52 PM 60.8 °F - 55.4 °F 82% 29.89 in 4.0 mi SW 3.5 mph - N/A   Light Drizzle
11:55 PM 61.0 °F - 55.6 °F 82% 29.89 in 4.0 mi Calm Calm - 0.00 in   Light Drizzle
11:56 PM 60.8 °F - 55.4 °F 82% 29.89 in 4.0 mi Calm Calm - N/A   Haze